Location: Adair
(33.3137°N, 90.0906°W)
Time: 08:03:07
(UTC+00:00)

BlueWalker 3 - Visible Passes

Search period start: 21 May 2026 00:00
Search period end: 31 May 2026 00:00
Orbit: 447 x 457 km, 53.2° (Epoch: 20 May)

Date Brightness Start Highest point End Pass type
(mag) Time Alt. Az. Time Alt. Az. Time Alt. Az.
21 May 2.4 02:06:40 10° SSW 02:09:51 32° SE 02:13:02 10° ENE visible
21 May 4.3 03:44:29 10° W 03:47:15 21° NW 03:50:03 10° NNE visible
21 May 2.8 10:19:05 10° NNW 10:22:32 49° NE 10:25:58 10° ESE visible
22 May 2.9 01:30:18 10° S 01:33:06 22° SE 01:35:54 10° ENE visible
22 May 3.8 03:07:15 10° W 03:10:21 28° NW 03:13:28 10° NNE visible
22 May 3.5 09:42:23 10° NNW 09:45:40 34° NE 09:48:56 10° ESE visible
23 May 3.2 02:30:07 10° WSW 02:33:28 39° NW 02:36:49 10° NNE visible
23 May 4.1 09:05:46 10° NNW 09:08:46 25° NE 09:11:46 10° E visible
24 May 2.5 01:53:06 10° WSW 01:56:36 56° NW 02:00:05 10° NE visible
24 May 4.5 08:29:12 10° NNW 08:31:50 19° NE 08:34:28 10° E visible
24 May 2.2 10:06:01 10° WNW 10:09:18 36° SW 10:12:34 10° SSE visible
25 May 5.3 02:56:42 10° NW 02:57:36 11° NNW 02:58:30 10° NNW visible
25 May 4.8 07:52:45 10° N 07:54:52 15° NNE 07:56:59 10° ENE visible
25 May 1.7 09:29:02 10° NW 09:32:30 55° SW 09:35:57 10° SSE visible
26 May 5.0 02:18:42 10° WNW 02:20:35 14° NNW 02:22:29 10° N visible
26 May 5.1 07:16:31 10° N 07:17:52 12° NNE 07:18:58 11° NE visible
26 May 4.4 08:59:14 10° SE 08:59:14 10° SE 08:52:08 10° NW visible
27 May 4.8 01:41:08 10° W 01:43:36 18° NW 01:46:05 10° N visible
